�������l�o���
Date,Time,MP-1(��Sv/h),MP-2(��Sv/h),MP-3(��Sv/h),MP-4(��Sv/h),MP-5(��Sv/h),MP-6(��Sv/h),MP-7(��Sv/h),MP-8(��Sv/h),����,����(m/s),���J
2018/07/29,00:00,0.893,1.244,0.886,1.587,1.137,0.474,0.838,0.794,���쓌,9.3,��
2018/07/29,00:10,0.890,1.246,0.888,1.585,1.137,0.475,0.839,0.791,��,9.2,��
2018/07/29,00:20,0.894,1.245,0.885,1.586,1.135,0.473,0.838,0.792,��,8.3,��
2018/07/29,00:30,0.893,1.250,0.889,1.587,1.135,0.474,0.839,0.791,��,9.1,��
2018/07/29,00:40,0.892,1.247,0.885,1.586,1.136,0.474,0.838,0.791,��,10.0,�L
2018/07/29,00:50,0.894,1.246,0.887,1.587,1.136,0.473,0.840,0.792,���쓌,9.4,�L
2018/07/29,01:00,0.892,1.247,0.886,1.586,1.136,0.473,0.838,0.791,���쓌,10.0,��
2018/07/29,01:10,0.892,1.247,0.888,1.587,1.135,0.476,0.838,0.792,���쓌,11.1,��
2018/07/29,01:20,0.894,1.247,0.888,1.583,1.136,0.474,0.839,0.793,���쓌,10.5,��
2018/07/29,01:30,0.891,1.250,0.888,1.588,1.136,0.475,0.840,0.793,���쓌,10.3,��
2018/07/29,01:40,0.891,1.251,0.888,1.586,1.133,0.475,0.839,0.790,���쓌,9.7,��
2018/07/29,01:50,0.890,1.250,0.889,1.586,1.137,0.474,0.840,0.792,���쓌,9.5,�L
2018/07/29,02:00,0.890,1.248,0.888,1.585,1.137,0.473,0.841,0.792,���쓌,9.3,�L
2018/07/29,02:10,0.888,1.249,0.888,1.587,1.137,0.473,0.839,0.791,���쓌,9.6,��
2018/07/29,02:20,0.892,1.248,0.888,1.586,1.137,0.475,0.840,0.791,���쓌,9.8,��
2018/07/29,02:30,0.890,1.246,0.889,1.586,1.135,0.474,0.840,0.792,��,10.2,�L
2018/07/29,02:40,0.891,1.247,0.886,1.587,1.136,0.475,0.838,0.791,��,10.6,�L
2018/07/29,02:50,0.891,1.247,0.886,1.587,1.136,0.474,0.840,0.791,��,10.9,��
2018/07/29,03:00,0.890,1.248,0.889,1.584,1.137,0.474,0.837,0.793,��,10.7,��
2018/07/29,03:10,0.890,1.249,0.888,1.588,1.135,0.474,0.840,0.792,��,10.8,��
2018/07/29,03:20,0.890,1.248,0.890,1.586,1.137,0.472,0.840,0.793,��,11.0,�L
2018/07/29,03:30,0.891,1.246,0.889,1.587,1.136,0.476,0.839,0.791,��,10.9,�L
2018/07/29,03:40,0.891,1.245,0.886,1.584,1.138,0.475,0.840,0.791,��,10.6,��
2018/07/29,03:50,0.890,1.246,0.888,1.587,1.136,0.473,0.839,0.792,���쓌,10.2,��
2018/07/29,04:00,0.890,1.246,0.887,1.588,1.136,0.475,0.839,0.792,���쓌,10.2,��
2018/07/29,04:10,0.891,1.247,0.888,1.586,1.136,0.475,0.838,0.792,���쓌,10.2,��
2018/07/29,04:20,0.890,1.248,0.886,1.587,1.136,0.474,0.840,0.792,���쓌,10.9,��
2018/07/29,04:30,0.889,1.248,0.887,1.585,1.136,0.474,0.838,0.792,���쓌,10.0,��
2018/07/29,04:40,0.889,1.245,0.889,1.588,1.136,0.474,0.838,0.791,���쓌,9.6,��
2018/07/29,04:50,0.890,1.246,0.888,1.587,1.136,0.474,0.840,0.792,���쓌,9.5,��
2018/07/29,05:00,0.891,1.250,0.888,1.584,1.137,0.474,0.839,0.792,���쓌,8.9,��
2018/07/29,05:10,0.890,1.248,0.890,1.586,1.134,0.476,0.837,0.792,���쓌,9.0,��
2018/07/29,05:20,0.892,1.248,0.890,1.588,1.134,0.475,0.839,0.793,��,9.7,��
2018/07/29,05:30,0.894,1.248,0.888,1.586,1.136,0.474,0.840,0.791,��,9.2,��
2018/07/29,05:40,0.890,1.248,0.887,1.585,1.124,0.473,0.835,0.787,��,8.1,�L
2018/07/29,05:50,0.887,1.242,0.882,1.560,1.094,0.465,0.823,0.780,���쓌,9.7,�L
2018/07/29,06:00,0.886,1.237,0.881,1.561,1.104,0.467,0.825,0.782,���쓌,8.9,��
2018/07/29,06:10,0.889,1.234,0.881,1.559,1.105,0.466,0.826,0.785,���쓌,8.0,�L
2018/07/29,06:20,0.887,1.234,0.880,1.560,1.101,0.468,0.827,0.781,���쓌,8.0,�L
2018/07/29,06:30,0.883,1.212,0.868,1.541,1.094,0.465,0.825,0.779,�쓌,8.8,�L
2018/07/29,06:40,0.881,1.217,0.870,1.543,1.098,0.465,0.825,0.781,�쓌,8.0,��
2018/07/29,06:50,0.881,1.219,0.872,1.546,1.103,0.466,0.828,0.781,�쓌,6.7,��
2018/07/29,07:00,0.881,1.222,0.873,1.552,1.104,0.466,0.826,0.780,�쓌,7.5,��
2018/07/29,07:10,0.881,1.223,0.870,1.553,1.105,0.469,0.827,0.779,�쓌,8.2,��
2018/07/29,07:20,0.883,1.224,0.874,1.550,1.105,0.468,0.829,0.782,���쓌,6.1,�L
2018/07/29,07:30,0.881,1.222,0.873,1.553,1.105,0.468,0.828,0.781,�쓌,5.7,�L
2018/07/29,07:40,0.874,1.220,0.871,1.549,1.100,0.467,0.826,0.779,�쓌,4.9,�L
2018/07/29,07:50,0.876,1.221,0.870,1.549,1.101,0.467,0.826,0.780,�쓌,5.2,��
2018/07/29,08:00,0.878,1.220,0.871,1.550,1.102,0.466,0.826,0.780,���쓌,6.7,��
2018/07/29,08:10,0.878,1.222,0.871,1.552,1.102,0.466,0.826,0.780,���쓌,7.7,��
2018/07/29,08:20,0.876,1.221,0.869,1.551,1.103,0.468,0.828,0.781,���쓌,7.7,��
2018/07/29,08:30,0.877,1.224,0.872,1.552,1.103,0.468,0.828,0.782,���쓌,7.7,��
2018/07/29,08:40,0.879,1.224,0.874,1.553,1.107,0.468,0.829,0.783,���쓌,8.0,�L
2018/07/29,08:50,0.880,1.226,0.871,1.551,1.107,0.468,0.828,0.781,���쓌,7.9,�L
2018/07/29,09:00,0.879,1.227,0.874,1.553,1.106,0.470,0.829,0.781,���쓌,7.6,��
2018/07/29,09:10,0.881,1.227,0.873,1.553,1.110,0.469,0.829,0.782,���쓌,8.8,��
2018/07/29,09:20,0.880,1.230,0.873,1.554,1.111,0.469,0.831,0.782,�쓌,9.4,��
2018/07/29,09:30,0.880,1.232,0.874,1.551,1.113,0.468,0.829,0.782,�쓌,9.5,��
2018/07/29,09:40,0.881,1.234,0.875,1.552,1.111,0.468,0.830,0.782,���쓌,9.1,��
2018/07/29,09:50,0.882,1.234,0.873,1.555,1.113,0.469,0.831,0.784,�쓌,9.3,��
2018/07/29,10:00,0.882,1.233,0.875,1.554,1.113,0.470,0.829,0.784,�쓌,9.5,��
2018/07/29,10:10,0.883,1.238,0.875,1.555,1.114,0.470,0.830,0.786,�쓌,8.7,��
2018/07/29,10:20,0.884,1.234,0.876,1.554,1.114,0.469,0.830,0.784,�쓌,9.0,�L
2018/07/29,10:30,0.877,1.223,0.865,1.543,1.097,0.465,0.823,0.777,��쓌,10.2,�L
2018/07/29,10:40,0.871,1.200,0.858,1.529,1.085,0.464,0.823,0.777,��쓌,8.4,�L
2018/07/29,10:50,0.874,1.210,0.862,1.536,1.093,0.465,0.822,0.779,�쓌,7.0,��
2018/07/29,11:00,0.876,1.211,0.862,1.537,1.096,0.467,0.824,0.779,�쓌,7.2,��
2018/07/29,11:10,0.876,1.214,0.864,1.540,1.098,0.467,0.824,0.779,�쓌,6.9,�L
2018/07/29,11:20,0.877,1.218,0.865,1.540,1.100,0.466,0.825,0.780,�쓌,6.3,��
2018/07/29,11:30,0.877,1.221,0.864,1.542,1.100,0.467,0.827,0.784,�쓌,9.1,��
2018/07/29,11:40,0.877,1.221,0.866,1.543,1.104,0.468,0.826,0.783,�쓌,8.8,��
2018/07/29,11:50,0.880,1.223,0.866,1.544,1.104,0.471,0.828,0.782,�쓌,7.7,��
2018/07/29,12:00,0.878,1.223,0.866,1.543,1.106,0.469,0.829,0.781,�쓌,8.9,��
2018/07/29,12:10,0.879,1.228,0.869,1.542,1.105,0.467,0.829,0.783,�쓌,8.5,��
2018/07/29,12:20,0.879,1.229,0.870,1.542,1.107,0.469,0.828,0.782,�쓌,7.9,��
2018/07/29,12:30,0.881,1.228,0.869,1.543,1.108,0.471,0.828,0.783,�쓌,8.0,��
2018/07/29,12:40,0.881,1.231,0.869,1.545,1.111,0.470,0.828,0.783,�쓌,7.2,��
2018/07/29,12:50,0.882,1.231,0.871,1.547,1.110,0.470,0.830,0.783,��쓌,7.3,��
2018/07/29,13:00,0.881,1.235,0.871,1.544,1.114,0.471,0.829,0.784,�쓌,6.1,��
2018/07/29,13:10,0.881,1.234,0.870,1.548,1.114,0.469,0.831,0.784,�쓌,6.9,��
2018/07/29,13:20,0.882,1.232,0.871,1.547,1.113,0.470,0.830,0.783,�쓌,6.1,��
2018/07/29,13:30,0.881,1.235,0.870,1.545,1.113,0.470,0.830,0.782,�쓌,5.9,��
2018/07/29,13:40,0.883,1.232,0.871,1.547,1.113,0.472,0.833,0.784,�쓌,5.2,��
2018/07/29,13:50,0.882,1.235,0.873,1.549,1.116,0.469,0.830,0.785,�쓌,5.5,��
2018/07/29,14:00,0.882,1.237,0.872,1.548,1.115,0.473,0.831,0.786,�쓌,7.1,��
2018/07/29,14:10,0.881,1.237,0.875,1.551,1.116,0.471,0.832,0.785,�쓌,7.2,��
2018/07/29,14:20,0.885,1.237,0.873,1.551,1.116,0.471,0.831,0.784,��쓌,7.4,��
2018/07/29,14:30,0.883,1.239,0.874,1.553,1.118,0.473,0.831,0.785,��쓌,7.4,��
2018/07/29,14:40,0.882,1.240,0.876,1.553,1.116,0.472,0.832,0.786,��쓌,7.2,��
2018/07/29,14:50,0.882,1.240,0.875,1.551,1.116,0.472,0.832,0.786,��쓌,5.5,��
2018/07/29,15:00,0.884,1.239,0.875,1.554,1.117,0.474,0.831,0.785,�쓌,6.8,��
2018/07/29,15:10,0.886,1.238,0.873,1.551,1.119,0.473,0.832,0.785,��쓌,7.9,��
2018/07/29,15:20,0.883,1.240,0.875,1.554,1.118,0.472,0.832,0.786,�쓌,8.6,��
2018/07/29,15:30,0.884,1.242,0.875,1.555,1.121,0.473,0.832,0.785,��쓌,9.3,��
2018/07/29,15:40,0.884,1.241,0.875,1.555,1.119,0.474,0.831,0.784,��쓌,9.2,��
2018/07/29,15:50,0.886,1.241,0.876,1.555,1.119,0.475,0.832,0.785,��쓌,9.9,��
2018/07/29,16:00,0.886,1.240,0.876,1.554,1.120,0.473,0.831,0.786,��쓌,8.1,��
2018/07/29,16:10,0.885,1.242,0.874,1.554,1.119,0.474,0.833,0.788,��쓌,7.9,��
2018/07/29,16:20,0.885,1.244,0.875,1.554,1.119,0.474,0.832,0.787,��쓌,9.2,��
2018/07/29,16:30,0.885,1.242,0.876,1.553,1.119,0.475,0.833,0.784,��쓌,8.7,��
2018/07/29,16:40,0.884,1.242,0.873,1.554,1.118,0.474,0.833,0.785,��쓌,8.2,��
2018/07/29,16:50,0.886,1.243,0.877,1.554,1.120,0.472,0.833,0.787,��쓌,7.2,��
2018/07/29,17:00,0.886,1.244,0.875,1.556,1.121,0.474,0.833,0.786,��쓌,7.7,��
2018/07/29,17:10,0.885,1.244,0.876,1.560,1.122,0.474,0.834,0.786,��쓌,7.3,��
2018/07/29,17:20,0.885,1.243,0.876,1.557,1.125,0.473,0.833,0.785,��쓌,7.6,��
2018/07/29,17:30,0.887,1.246,0.876,1.559,1.123,0.476,0.833,0.785,��쓌,7.3,��
2018/07/29,17:40,0.888,1.246,0.876,1.558,1.123,0.475,0.832,0.785,��쓌,6.7,��
2018/07/29,17:50,0.886,1.245,0.875,1.555,1.123,0.474,0.833,0.788,��쓌,7.0,�L
2018/07/29,18:00,0.886,1.246,0.877,1.558,1.123,0.476,0.832,0.786,��쓌,6.7,�L
2018/07/29,18:10,0.886,1.245,0.878,1.557,1.124,0.476,0.831,0.788,��쓌,7.2,�L
2018/07/29,18:20,0.886,1.244,0.877,1.560,1.124,0.476,0.833,0.786,��쓌,7.2,��
2018/07/29,18:30,0.887,1.246,0.875,1.558,1.122,0.476,0.831,0.786,��쓌,6.5,��
2018/07/29,18:40,0.885,1.245,0.877,1.557,1.121,0.476,0.833,0.787,��쓌,6.4,��
2018/07/29,18:50,0.885,1.243,0.878,1.558,1.122,0.476,0.833,0.784,��쓌,6.7,��
2018/07/29,19:00,0.884,1.245,0.877,1.560,1.124,0.477,0.832,0.786,��쓌,6.2,��
2018/07/29,19:10,0.888,1.244,0.875,1.559,1.122,0.478,0.833,0.786,��쓌,5.5,��
2018/07/29,19:20,0.887,1.245,0.876,1.557,1.124,0.476,0.833,0.787,��쓌,5.5,��
2018/07/29,19:30,0.886,1.245,0.876,1.558,1.125,0.477,0.833,0.786,��쓌,5.2,��
2018/07/29,19:40,0.886,1.246,0.878,1.558,1.124,0.477,0.832,0.786,��쓌,5.1,��
2018/07/29,19:50,0.887,1.244,0.877,1.560,1.124,0.475,0.833,0.786,��쓌,5.1,��
2018/07/29,20:00,0.885,1.246,0.877,1.558,1.124,0.478,0.833,0.786,��쓌,4.7,��
2018/07/29,20:10,0.887,1.245,0.876,1.556,1.122,0.476,0.833,0.789,��쓌,5.1,��
2018/07/29,20:20,0.886,1.242,0.877,1.558,1.121,0.476,0.832,0.787,��쓌,4.6,��
2018/07/29,20:30,0.885,1.242,0.878,1.562,1.122,0.475,0.833,0.787,��쓌,4.4,��
2018/07/29,20:40,0.886,1.247,0.877,1.557,1.123,0.477,0.833,0.786,��쓌,4.5,��
2018/07/29,20:50,0.887,1.243,0.877,1.557,1.124,0.477,0.832,0.786,��쓌,4.0,��
2018/07/29,21:00,0.886,1.244,0.877,1.556,1.123,0.477,0.835,0.788,��쓌,4.9,��
2018/07/29,21:10,0.886,1.245,0.879,1.557,1.122,0.477,0.833,0.785,��쓌,4.3,��
2018/07/29,21:20,0.885,1.245,0.878,1.557,1.123,0.476,0.833,0.787,��쓌,4.3,��
2018/07/29,21:30,0.887,1.244,0.877,1.559,1.124,0.476,0.833,0.786,��쓌,3.9,�L
2018/07/29,21:40,0.887,1.244,0.877,1.558,1.123,0.474,0.831,0.787,��,4.7,��
2018/07/29,21:50,0.888,1.248,0.877,1.556,1.123,0.476,0.834,0.788,��,4.1,��
2018/07/29,22:00,0.886,1.246,0.878,1.558,1.123,0.476,0.833,0.788,��,4.2,��
2018/07/29,22:10,0.885,1.246,0.877,1.560,1.123,0.475,0.833,0.788,��,4.1,��
2018/07/29,22:20,0.886,1.245,0.876,1.556,1.121,0.472,0.832,0.786,��,4.3,�L
2018/07/29,22:30,0.885,1.245,0.877,1.555,1.119,0.476,0.832,0.787,��,4.0,�L
2018/07/29,22:40,0.887,1.243,0.876,1.554,1.119,0.474,0.832,0.788,��,4.2,��
2018/07/29,22:50,0.884,1.244,0.876,1.556,1.118,0.473,0.834,0.786,��쓌,3.7,��
2018/07/29,23:00,0.884,1.243,0.874,1.556,1.117,0.475,0.833,0.788,��,2.6,��
2018/07/29,23:10,0.884,1.244,0.874,1.556,1.116,0.475,0.833,0.785,��,2.8,�L
2018/07/29,23:20,0.883,1.233,0.874,1.555,1.120,0.474,0.833,0.788,��쓌,3.5,�L
2018/07/29,23:30,0.882,1.232,0.876,1.556,1.110,0.474,0.833,0.789,��,3.4,�L
2018/07/29,23:40,0.881,1.233,0.875,1.553,1.111,0.471,0.831,0.787,��쓌,2.8,��
2018/07/29,23:50,0.881,1.233,0.874,1.553,1.108,0.472,0.832,0.788,��쓌,2.5,��
